Regional Weather Roundup
Issued by NWS

Home | Current Version | Previous Version | Graphics & Text | Print | Product List | Glossary On
Versions: 1 2 3 4 5 6 7 8 9 10 11 12 13 14 15 16 17 18 19 20 21 22 23 24 25 26 27
000
ASUS45 KTFX 250910
RWRMT
MONTANA REGIONAL WEATHER ROUNDUP
NATIONAL WEATHER SERVICE GREAT FALLS MT
300 AM MDT SUN JUN 25 2017

NOTE: "FAIR" INDICATES FEW OR NO CLOUDS BELOW 12000 FEET WITH NO
SIGNIFICANT WEATHER AND/OR OBSTRUCTIONS TO VISIBILITY.

MTZ001>007-043-251000-
WEST OF THE DIVIDE

CITY           SKY/WX    TMP DP  RH WIND       PRES   REMARKS
KALISPELL      CLEAR     49  46  90 CALM      30.23R
MISSOULA       CLEAR     55  41  59 W3        30.25S
BUTTE          CLEAR     46  36  68 SE5       30.37S
MULLAN PASS    CLEAR     59  30  33 SE9       30.34F
ANACONDA         N/A     46  37  71 SW6       30.35S
DEER LODGE       N/A     48  39  71 CALM      30.36R
EUREKA           N/A     50  43  76 MISG      30.22R
HAMILTON         N/A     52  41  66 CALM      30.27R
$$

MTZ008-052>055-251000-
SOUTHWEST MONTANA

CITY           SKY/WX    TMP DP  RH WIND       PRES   REMARKS
BOZEMAN        CLEAR     54  38  54 CALM      30.33S
DILLON         CLEAR     51  36  56 E5        30.33S
W YELLOWSTONE  CLEAR     34  32  93 CALM      30.41S
ENNIS          CLEAR     45  37  76 S5        30.39S
THREE FORKS      N/A     47  39  73 CALM      30.29R
$$

MTZ009-010-012-014-046-048-049-054-251000-
EAST SLOPES AND CENTRAL MONTANA

CITY           SKY/WX    TMP DP  RH WIND       PRES   REMARKS
CUT BANK       CLEAR     50  43  77 E5        30.33S
GREAT FALLS    CLEAR     51  42  71 NE3       30.33S
MALMSTROM AFB  CLOUDY    50  43  76 SE6       30.32S
HELENA         CLEAR     57  40  52 W7        30.31S
CHOTEAU          N/A     50  45  81 SW5       30.35F
$$

MTZ011-013-016-021-045-047-050-051-251000-
NORTH CENTRAL MONTANA

CITY           SKY/WX    TMP DP  RH WIND       PRES   REMARKS
HAVRE          CLEAR     44  39  82 NW3       30.31S
LEWISTOWN      CLEAR     44  38  79 SE6       30.35F
N BAR RANCH      N/A     43  34  70 NW5       30.38F
CHINOOK          N/A     45  41  87 CALM      30.30S
FORT BENTON      N/A     50  41  71 CALM      30.33S
$$

MTZ017>020-022>027-061-062-251000-
NORTHEAST MONTANA

CITY           SKY/WX    TMP DP  RH WIND       PRES   REMARKS
GLASGOW        CLEAR     51  34  52 SE8       30.25F
JORDAN           N/A     42  28  57 W6        30.28F
SIDNEY         CLEAR     46  36  68 S7        30.26F
WOLF POINT     CLEAR     42  32  67 W3        30.26F
MALTA          CLEAR     45  41  87 SW7       30.28S
PLENTYWOOD       N/A     52  39  62 CALM      30.26S
POPLAR           N/A     50  34  53 CALM      30.26F
$$

MTZ028>42-056>058-251000-
SOUTHCENTRAL AND SOUTHEAST MONTANA

CITY           SKY/WX    TMP DP  RH WIND       PRES   REMARKS
BAKER          CLEAR     52  31  44 S15       30.32F
BILLINGS       CLOUDY    57  39  51 N5        30.32F
LIVINGSTON     CLEAR     49  36  61 CALM      30.36S
MILES CITY     CLEAR     51  30  44 S7        30.30S
BIG TIMBER     CLEAR     48  37  66 NE8       30.39S
FORSYTH          N/A     52  36  54 CALM      30.30S
ROUNDUP          N/A     51  33  50 SW6       30.22S
$$

REGIONAL REPORTS...DAKOTAS

CITY           SKY/WX    TMP DP  RH WIND       PRES   REMARKS
WILLISTON      PTCLDY    50  38  63 SW6       30.24F
MINOT          CLOUDY    50  41  71 SW9       30.24F
DICKINSON      CLEAR     41  33  73 SW10      30.27F
BEACH            N/A     45  34  65 SW10      30.32F
CROSBY         CLOUDY    52  52 100 SW7       30.25S
TIOGA          CLOUDY    46  46 100 SE5       30.28R
WATFORD CITY     N/A     43  37  81 SW6       30.24F
BISMARCK       CLEAR     43  38  82 W3        30.28S
GRAND FORKS    CLEAR     44  42  93 NW8       30.18F
FARGO          CLEAR     48  42  80 NW10      30.18S
BUFFALO SD       N/A     46  32  58 SW8       30.28F
RAPID CITY     CLEAR     44  33  65 CALM      30.37F
$$

REGIONAL REPORTS...WYOMING/IDAHO/WASHINGTON

CITY           SKY/WX    TMP DP  RH WIND       PRES   REMARKS
GILLETTE       CLEAR     44  32  62 S6        30.35F
SHERIDAN       CLEAR     45  39  79 NW5       30.33F
BUFFALO WY     CLOUDY    50  39  66 W3        30.36F
CODY           PTCLDY    52  37  56 CALM      30.37S
YELLOWSTONE LA   N/A     36  32  85 NW3       30.48S
IDAHO FALLS    CLEAR     50  46  86 N7        30.25S
SALMON         CLEAR     50  39  66 CALM      30.25S
BOISE          CLEAR     63  41  44 SE7       30.08F
SPOKANE        CLEAR     65  45  48 NE5       30.14S
$$

REGIONAL REPORTS...ALBERTA

CITY           SKY/WX    TMP DP  RH WIND       PRES   REMARKS
EDMONTON       CLEAR     55  48  76 S7        30.23F
CALGARY        PTCLDY    54  45  71 S5        30.28F
LETHBRIDGE     PTCLDY    48  45  87 S5        30.29F
MEDICINE HAT   CLEAR     48  45  87 SW6       30.27F
WATERTON GATE    N/A     39  37  93 SW1         N/A
MILK RIVER       N/A     45  43  93 CALM        N/A
$$

REGIONAL REPORTS...SASKATCHEWAN

CITY           SKY/WX    TMP DP  RH WIND       PRES   REMARKS
SWIFT CURRENT  CLOUDY    48  45  87 SW8       30.26S
REGINA         CLOUDY    46  45  93 SW6       30.26S
SASKATOON      PTCLDY    45  45 100 NW8       30.26S
VAL MARIE        N/A     37  32  81 E6          N/A
ROCKGLEN         N/A     48  39  71 N6          N/A
ASSINIBOIA       N/A     48  46  93 S5          N/A
$$




USA.gov is the U.S. government's official web portal to all federal, state and local government web resources and services.